Date String (YYYY-MM-DD hh:mm:ss) UTC,Instrument flags,absolute air pressure of the measurement (hPa),sample flow rate (lpm),inlet stack bypass flow (lpm),air temperature of the measurement (°C),ambient temperature measured by the external sensor (°C),aerosol sample conditioner tube jacket temperature (°C),OPC LED temperature (°C),internal box temperature (°C),relative humidity of the measurement (%),span deviation,mass concentration of particles derived from Lorenz-Mie calculation of OPC scattering (μg/m³),mass concentration of particles derived from Lorenz-Mie calculation of OPC scattering (μg/m³),mass concentration of particles derived from Lorenz-Mie calculation of OPC scattering (μg/m³)
DateTimeUTC,F1_M11,P_M11,Q1_M11,Q2_M11,T1_M11,T2_M11,T3_M11,T4_M11,T5_M11,U1_M11,ZSPAN_M11,X0_M11,X2_M11,X1_M11
2024-05-05 15:00:00,SystemResetWarning,0822.2,5.00,000.00,023.7,023.0,000.0,032.1,025.5,024.0,0000.0,0016.55,0004.30,0003.27
2024-05-05 15:01:00,SystemResetWarning,0822.2,5.01,000.00,023.7,023.0,000.0,032.1,025.5,023.9,0000.0,0016.16,0004.23,0003.27
2024-05-05 15:02:00,SystemResetWarning,0822.3,4.99,000.00,023.7,023.0,000.0,032.1,025.5,023.9,0000.0,0014.53,0004.20,0003.28
2024-05-05 15:03:00,SystemResetWarning,0822.2,4.98,000.00,023.7,023.0,000.0,032.1,025.5,024.0,0000.0,0013.12,0004.20,0003.27
2024-05-05 15:04:00,SystemResetWarning,0822.2,5.01,000.00,023.7,023.0,000.0,032.1,025.5,023.8,0000.0,0012.47,0004.21,0003.27
2024-05-05 15:05:00,SystemResetWarning,0822.1,5.01,000.00,023.7,023.0,000.0,032.1,025.5,023.9,0000.0,0012.30,0004.21,0003.27
2024-05-05 15:06:00,SystemResetWarning,0821.9,4.98,000.00,023.7,023.0,000.0,032.1,025.5,024.0,0000.0,0013.16,0004.16,0003.27
2024-05-05 15:07:00,SystemResetWarning,0821.8,5.01,000.00,023.7,023.0,000.0,032.1,025.5,024.1,0000.0,0014.83,0004.25,0003.28
2024-05-05 15:08:00,SystemResetWarning,0821.9,5.01,000.00,023.7,023.0,000.0,032.1,025.5,024.2,0000.0,0015.22,0004.31,0003.28
2024-05-05 15:09:00,SystemResetWarning,0822.0,4.99,000.00,023.7,023.0,000.0,032.1,025.5,024.0,0000.0,0014.61,0004.32,0003.28
2024-05-05 15:10:00,SystemResetWarning,0822.1,4.99,000.00,023.7,023.0,000.0,032.1,025.5,023.9,0000.0,0015.55,0004.35,0003.28
2024-05-05 15:11:00,SystemResetWarning,0822.2,5.01,000.00,023.7,023.0,000.0,032.1,025.5,023.9,0000.0,0015.78,0004.34,0003.28
2024-05-05 15:12:00,SystemResetWarning,0822.2,5.00,000.00,023.7,023.0,000.0,032.1,025.5,023.9,0000.0,0015.21,0004.36,0003.28
2024-05-05 15:13:00,SystemResetWarning,0822.0,4.98,000.00,023.7,023.0,000.0,032.1,025.5,023.8,0000.0,0014.94,0004.36,0003.29
2024-05-05 15:14:00,SystemResetWarning,0821.9,5.00,000.00,023.7,023.0,000.0,032.1,025.5,023.8,0000.0,0014.89,0004.35,0003.29
2024-05-05 15:15:00,SystemResetWarning,0821.8,5.01,000.00,023.7,023.0,000.0,032.1,025.4,023.9,0000.0,0015.32,0004.32,0003.29
2024-05-05 15:16:00,SystemResetWarning,0821.9,4.99,000.00,023.7,023.0,000.0,032.1,025.4,023.8,0000.0,0014.63,0004.31,0003.29
2024-05-05 15:17:00,SystemResetWarning,0822.0,5.00,000.00,023.7,023.0,000.0,032.1,025.4,023.9,0000.0,0014.00,0004.35,0003.30
2024-05-05 15:18:00,SystemResetWarning,0822.1,5.00,000.00,023.7,023.0,000.0,032.1,025.4,023.9,0000.0,0013.05,0004.30,0003.30
2024-05-05 15:19:00,SystemResetWarning,0822.2,4.99,000.00,023.7,023.0,000.0,032.1,025.5,024.1,0000.0,0012.10,0004.27,0003.29
2024-05-05 15:20:00,SystemResetWarning,0822.1,5.00,000.00,023.7,023.0,000.0,032.1,025.5,023.8,0000.0,0012.32,0004.29,0003.29
2024-05-05 15:21:00,SystemResetWarning,0822.0,5.01,000.00,023.7,023.1,000.0,032.1,025.5,023.9,0000.0,0011.39,0004.27,0003.28
2024-05-05 15:22:00,SystemResetWarning,0821.9,5.00,000.00,023.7,023.1,000.0,032.1,025.5,023.7,0000.0,0010.60,0004.30,0003.27
2024-05-05 15:23:00,SystemResetWarning,0821.8,4.99,000.00,023.7,023.1,000.0,032.1,025.4,023.7,0000.0,0010.65,0004.34,0003.27
2024-05-05 15:24:00,SystemResetWarning,0821.9,4.99,000.00,023.7,023.1,000.0,032.1,025.5,023.7,0000.0,0011.57,0004.35,0003.27
2024-05-05 15:25:00,SystemResetWarning,0822.0,5.01,000.00,023.7,023.1,000.0,032.1,025.5,023.8,0000.0,0011.54,0004.34,0003.26
2024-05-05 15:26:00,SystemResetWarning,0822.0,5.01,000.00,023.7,023.1,000.0,032.1,025.5,023.6,0000.0,0011.39,0004.35,0003.26
2024-05-05 15:27:00,SystemResetWarning,0822.1,5.00,000.00,023.8,023.1,000.0,032.1,025.5,023.7,0000.0,0011.62,0004.33,0003.25
2024-05-05 15:28:00,SystemResetWarning,0822.3,4.99,000.00,023.8,023.1,000.0,032.2,025.5,023.7,0000.0,0012.39,0004.29,0003.24
2024-05-05 15:29:00,SystemResetWarning,0822.2,5.01,000.00,023.8,023.1,000.0,032.2,025.5,023.7,0000.0,0013.06,0004.27,0003.23
2024-05-05 15:30:00,SystemResetWarning,0822.2,5.01,000.00,023.8,023.1,000.0,032.2,025.5,023.6,0000.0,0013.74,0004.23,0003.23
2024-05-05 15:31:00,SystemResetWarning,0822.2,5.00,000.00,023.8,023.1,000.0,032.2,025.5,023.4,0000.0,0014.03,0004.20,0003.24
2024-05-05 15:32:00,SystemResetWarning,0822.2,5.00,000.00,023.8,023.1,000.0,032.2,025.5,023.4,0000.0,0014.23,0004.21,0003.25
2024-05-05 15:33:00,SystemResetWarning,0822.4,5.00,000.00,023.8,023.1,000.0,032.2,025.5,023.5,0000.0,0014.26,0004.22,0003.25
2024-05-05 15:34:00,SystemResetWarning,0822.4,4.99,000.00,023.8,023.2,000.0,032.2,025.5,023.5,0000.0,0014.25,0004.16,0003.25
2024-05-05 15:35:00,SystemResetWarning,0822.4,5.00,000.00,023.8,023.2,000.0,032.2,025.6,023.5,0000.0,0013.33,0004.14,0003.25
2024-05-05 15:36:00,SystemResetWarning,0822.2,5.00,000.00,023.8,023.1,000.0,032.2,025.6,023.6,0000.0,0013.40,0004.15,0003.26
2024-05-05 15:37:00,SystemResetWarning,0822.0,5.01,000.00,023.8,023.1,000.0,032.2,025.6,023.8,0000.0,0013.43,0004.16,0003.27
2024-05-05 15:38:00,SystemResetWarning,0822.0,5.02,000.00,023.8,023.1,000.0,032.2,025.5,024.0,0000.0,0012.95,0004.21,0003.28
2024-05-05 15:39:00,SystemResetWarning,0822.0,5.00,000.00,023.8,023.1,000.0,032.2,025.5,024.1,0000.0,0013.16,0004.24,0003.28
2024-05-05 15:40:00,SystemResetWarning,0822.2,5.00,000.00,023.8,023.1,000.0,032.2,025.6,024.0,0000.0,0012.34,0004.23,0003.29
2024-05-05 15:41:00,SystemResetWarning,0822.3,4.99,000.00,023.8,023.1,000.0,032.2,025.6,024.0,0000.0,0011.66,0004.25,0003.29
2024-05-05 15:42:00,SystemResetWarning,0822.2,5.00,000.00,023.8,023.1,000.0,032.2,025.6,023.9,0000.0,0011.29,0004.27,0003.30
2024-05-05 15:43:00,SystemResetWarning,0822.0,5.01,000.00,023.8,023.1,000.0,032.2,025.6,023.9,0000.0,0011.21,0004.27,0003.31
2024-05-05 15:44:00,SystemResetWarning,0821.9,5.00,000.00,023.8,023.1,000.0,032.2,025.5,024.0,0000.0,0012.03,0004.28,0003.31
2024-05-05 15:45:00,SystemResetWarning,0821.9,5.01,000.00,023.8,023.1,000.0,032.2,025.5,024.0,0000.0,0013.27,0004.39,0003.31
2024-05-05 15:46:00,SystemResetWarning,0821.8,5.00,000.00,023.8,023.2,000.0,032.2,025.5,023.9,0000.0,0014.22,0004.45,0003.33
2024-05-05 15:47:00,SystemResetWarning,0821.8,4.99,000.00,023.8,023.2,000.0,032.2,025.6,023.9,0000.0,0014.87,0004.43,0003.34
2024-05-05 15:48:00,SystemResetWarning,0821.8,5.00,000.00,023.9,023.2,000.0,032.2,025.6,023.9,0000.0,0014.95,0004.45,0003.35
2024-05-05 15:49:00,SystemResetWarning,0821.9,5.01,000.00,023.9,023.2,000.0,032.2,025.6,024.1,0000.0,0015.56,0004.45,0003.34
2024-05-05 15:50:00,SystemResetWarning,0822.0,4.99,000.00,023.9,023.3,000.0,032.2,025.6,024.1,0000.0,0016.62,0004.42,0003.35
2024-05-05 15:51:00,SystemResetWarning,0822.0,4.99,000.00,023.9,023.3,000.0,032.2,025.5,024.1,0000.0,0015.82,0004.42,0003.35
2024-05-05 15:52:00,SystemResetWarning,0822.0,5.00,000.00,023.9,023.3,000.0,032.2,025.6,024.1,0000.0,0016.25,0004.40,0003.35
2024-05-05 15:53:00,SystemResetWarning,0822.0,5.01,000.00,023.9,023.3,000.0,032.2,025.6,024.1,0000.0,0016.51,0004.41,0003.36
2024-05-05 15:54:00,SystemResetWarning,0822.0,5.01,000.00,023.9,023.3,000.0,032.2,025.6,024.1,0000.0,0017.31,0004.44,0003.36
2024-05-05 15:55:00,SystemResetWarning,0822.0,4.99,000.00,023.9,023.4,000.0,032.2,025.7,024.1,0000.0,0018.81,0004.42,0003.37
2024-05-05 15:56:00,SystemResetWarning,0822.0,4.99,000.00,024.0,023.4,000.0,032.2,025.7,024.1,0000.0,0018.54,0004.36,0003.37
2024-05-05 15:57:00,SystemResetWarning,0822.0,5.02,000.00,024.0,023.4,000.0,032.2,025.7,024.1,0000.0,0018.52,0004.31,0003.37
2024-05-05 15:58:00,SystemResetWarning,0821.9,5.00,000.00,024.0,023.4,000.0,032.2,025.7,024.0,0000.0,0018.39,0004.32,0003.37
2024-05-05 15:59:00,SystemResetWarning,0821.9,4.99,000.00,024.0,023.4,000.0,032.3,025.7,024.0,0000.0,0018.62,0004.30,0003.37
